Tracking 21612 objects as of 20-Oct-2020
HD Live streaming from Space Station
objects crossing your sky now

METEOR 1-23

Track METEOR 1-23 now!
10-day predictions
METEOR 1-23 is classified as:


NORAD ID: 8519
Int'l Code: 1975-124A
Perigee: 852.8 km
Apogee: 874.5 km
Inclination: 81.2 °
Period: 102.1 minutes
Semi major axis: 7234 km
RCS: 4.3645 m2 (large)
Launch date: December 25, 1975
Source: Commonwealth of Independent States (former USSR) (CIS)
Launch site: PLESETSK MISSILE AND SPACE COMPLEX (PKMTR)
aabbcc
Your satellite tracking list
Your tracking list is empty




NASA's NSSDC Master Catalog

Two Line Element Set (TLE):
1  8519U 75124A   20292.66931088  .00000189  00000-0  98127-4 0  9997
2  8519  81.2447 340.2654 0014993  67.6342 292.6417 14.10829186305592
Source of the keplerian elements: AFSPC